When you browse on this site, cookies collect data to enhance your experience and personalize the content and advertising you see.
Visit our Privacy Policy to learn more. By continuing to use the site, you agree to this use of cookies and data.
  • In Schweiz
  • Länderverzeichnis
  • Für 7 Tage
  • Wassertemperatur
  • Satellitenkarten
  • Wetterkarte
  • Widgets
  • user-avatar
    Anmelden

    Stündliche Wetter Tovste

    Heute, 20 Juli, Samstag

    Zeit Temperatur Niederschläge Wind Luftdruck Luftfeuchtigkeit
    00:00 +16°C° 0 mm 2 m/S 746 mmHg 86%
    01:00 +15°C° 0 mm 2 m/S 746 mmHg 87%
    02:00 +15°C° 0 mm 2 m/S 746 mmHg 86%
    03:00 +15°C° 0 mm 2 m/S 746 mmHg 87%
    04:00 +15°C° 0 mm 2 m/S 747 mmHg 87%
    05:00 +15°C° 0 mm 2 m/S 747 mmHg 87%
    06:00 +17°C° 0 mm 2 m/S 747 mmHg 82%
    07:00 +19°C° 0 mm 3 m/S 747 mmHg 76%
    08:00 +21°C° 0 mm 3 m/S 748 mmHg 70%
    09:00 +24°C° 0.2 mm 3 m/S 748 mmHg 66%
    10:00 +25°C° 0.2 mm 4 m/S 748 mmHg 61%
    11:00 +26°C° 0.2 mm 4 m/S 748 mmHg 56%
    12:00 +26°C° 0.2 mm 4 m/S 748 mmHg 55%
    13:00 +26°C° 0.2 mm 4 m/S 748 mmHg 55%
    14:00 +27°C° 0.2 mm 4 m/S 748 mmHg 54%
    15:00 +27°C° 0 mm 3 m/S 748 mmHg 56%
    16:00 +26°C° 0 mm 3 m/S 748 mmHg 58%
    17:00 +26°C° 0 mm 2 m/S 748 mmHg 60%
    18:00 +24°C° 0 mm 2 m/S 748 mmHg 64%
    19:00 +22°C° 0 mm 1 m/S 748 mmHg 69%
    20:00 +20°C° 0 mm 1 m/S 748 mmHg 73%
    21:00 +20°C° 0 mm 1 m/S 748 mmHg 74%
    22:00 +19°C° 0 mm 1 m/S 748 mmHg 76%
    23:00 +19°C° 0 mm 1 m/S 748 mmHg 77%

    Morgen, 21 Juli, Sonntag

    Zeit Temperatur Niederschläge Wind Luftdruck Luftfeuchtigkeit
    00:00 +19°C° 0 mm 1 m/S 748 mmHg 79%
    01:00 +18°C° 0 mm 1 m/S 748 mmHg 80%
    02:00 +18°C° 0 mm 1 m/S 748 mmHg 82%
    03:00 +18°C° 0 mm 1 m/S 748 mmHg 82%
    04:00 +18°C° 0 mm 1 m/S 748 mmHg 82%
    05:00 +16°C° 0 mm 0 m/S 748 mmHg 81%
    06:00 +20°C° 0 mm 1 m/S 748 mmHg 76%
    07:00 +22°C° 0 mm 1 m/S 748 mmHg 71%
    08:00 +24°C° 0 mm 1 m/S 748 mmHg 66%
    09:00 +25°C° 0.5 mm 2 m/S 748 mmHg 62%
    10:00 +26°C° 0.5 mm 2 m/S 748 mmHg 58%
    11:00 +27°C° 0.5 mm 2 m/S 748 mmHg 53%
    12:00 +27°C° 0.1 mm 2 m/S 748 mmHg 52%
    13:00 +28°C° 0.1 mm 2 m/S 748 mmHg 51%
    14:00 +28°C° 0.1 mm 2 m/S 748 mmHg 50%
    15:00 +27°C° 0.1 mm 2 m/S 748 mmHg 53%
    16:00 +27°C° 0.1 mm 2 m/S 747 mmHg 57%
    17:00 +26°C° 0.1 mm 2 m/S 747 mmHg 61%
    18:00 +25°C° 0.5 mm 2 m/S 747 mmHg 67%
    19:00 +23°C° 0.5 mm 1 m/S 747 mmHg 73%
    20:00 +21°C° 0.5 mm 1 m/S 747 mmHg 79%
    21:00 +20°C° 0.4 mm 1 m/S 747 mmHg 80%
    22:00 +20°C° 0.4 mm 1 m/S 747 mmHg 81%
    23:00 +19°C° 0.4 mm 1 m/S 747 mmHg 83%

    übermorgen, 22 Juli, Montag

    Zeit Temperatur Niederschläge Wind Luftdruck Luftfeuchtigkeit
    00:00 +19°C° 0.1 mm 1 m/S 747 mmHg 83%
    01:00 +19°C° 0.1 mm 1 m/S 747 mmHg 84%
    02:00 +19°C° 0.1 mm 1 m/S 747 mmHg 85%
    03:00 +19°C° 0 mm 1 m/S 747 mmHg 86%
    04:00 +19°C° 0 mm 1 m/S 747 mmHg 86%
    05:00 +19°C° 0 mm 1 m/S 747 mmHg 87%
    06:00 +20°C° 0 mm 1 m/S 746 mmHg 82%
    07:00 +22°C° 0 mm 1 m/S 746 mmHg 78%
    08:00 +24°C° 0 mm 1 m/S 746 mmHg 73%
    09:00 +25°C° 0.3 mm 2 m/S 746 mmHg 69%
    10:00 +26°C° 0.3 mm 2 m/S 746 mmHg 65%
    11:00 +27°C° 0.3 mm 2 m/S 746 mmHg 60%
    12:00 +28°C° 0.6 mm 2 m/S 746 mmHg 59%
    13:00 +28°C° 0.6 mm 2 m/S 746 mmHg 57%
    14:00 +28°C° 0.6 mm 2 m/S 745 mmHg 56%
    15:00 +27°C° 0.6 mm 2 m/S 745 mmHg 63%
    16:00 +26°C° 0.6 mm 2 m/S 745 mmHg 71%
    17:00 +25°C° 0.6 mm 2 m/S 745 mmHg 78%
    18:00 +24°C° 0.2 mm 2 m/S 744 mmHg 80%
    19:00 +23°C° 0.2 mm 1 m/S 744 mmHg 82%
    20:00 +20°C° 0.2 mm 0 m/S 744 mmHg 84%
    21:00 +21°C° 0.2 mm 1 m/S 744 mmHg 85%
    22:00 +21°C° 0.2 mm 1 m/S 744 mmHg 86%
    23:00 +20°C° 0.2 mm 1 m/S 744 mmHg 87%

    23 Juli, Dienstag

    Zeit Temperatur Niederschläge Wind Luftdruck Luftfeuchtigkeit
    00:00 +20°C° 0 mm 1 m/S 743 mmHg 89%
    01:00 +19°C° 0 mm 1 m/S 743 mmHg 90%
    02:00 +19°C° 0 mm 1 m/S 743 mmHg 92%
    03:00 +19°C° 0 mm 1 m/S 743 mmHg 92%
    04:00 +18°C° 0 mm 2 m/S 743 mmHg 93%
    05:00 +18°C° 0 mm 2 m/S 743 mmHg 94%
    06:00 +19°C° 0 mm 2 m/S 743 mmHg 92%
    07:00 +19°C° 0 mm 3 m/S 743 mmHg 90%
    08:00 +20°C° 0 mm 3 m/S 743 mmHg 88%
    09:00 +21°C° 0 mm 3 m/S 743 mmHg 86%
    10:00 +21°C° 0 mm 3 m/S 743 mmHg 84%
    11:00 +22°C° 0 mm 4 m/S 743 mmHg 82%
    12:00 +22°C° 0.4 mm 4 m/S 743 mmHg 79%
    13:00 +23°C° 0.4 mm 4 m/S 743 mmHg 75%
    14:00 +25°C° 0.4 mm 5 m/S 743 mmHg 72%
    15:00 +25°C° 0.3 mm 4 m/S 743 mmHg 73%
    16:00 +23°C° 0.3 mm 4 m/S 743 mmHg 75%
    17:00 +24°C° 0.3 mm 3 m/S 743 mmHg 77%
    18:00 +22°C° 0.4 mm 3 m/S 743 mmHg 80%
    19:00 +20°C° 0.4 mm 3 m/S 743 mmHg 84%
    20:00 +19°C° 0.4 mm 3 m/S 743 mmHg 88%
    21:00 +19°C° 0.7 mm 3 m/S 743 mmHg 90%
    22:00 +18°C° 0.7 mm 3 m/S 743 mmHg 91%
    23:00 +18°C° 0.7 mm 2 m/S 743 mmHg 93%

    24 Juli, Mittwoch

    Zeit Temperatur Niederschläge Wind Luftdruck Luftfeuchtigkeit
    00:00 +17°C° 0.1 mm 2 m/S 743 mmHg 94%
    01:00 +17°C° 0.1 mm 2 m/S 743 mmHg 94%
    02:00 +17°C° 0.1 mm 2 m/S 743 mmHg 95%
    03:00 +16°C° 0 mm 2 m/S 743 mmHg 95%
    04:00 +16°C° 0 mm 2 m/S 743 mmHg 95%
    05:00 +16°C° 0 mm 1 m/S 743 mmHg 95%
    06:00 +19°C° 0 mm 1 m/S 744 mmHg 89%
    07:00 +20°C° 0 mm 1 m/S 744 mmHg 84%
    08:00 +21°C° 0 mm 1 m/S 744 mmHg 79%
    09:00 +22°C° 0 mm 1 m/S 744 mmHg 73%
    10:00 +24°C° 0 mm 1 m/S 744 mmHg 67%
    11:00 +25°C° 0 mm 1 m/S 744 mmHg 61%
    12:00 +26°C° 0 mm 1 m/S 744 mmHg 58%
    13:00 +26°C° 0 mm 1 m/S 744 mmHg 55%
    14:00 +27°C° 0 mm 2 m/S 744 mmHg 52%
    15:00 +27°C° 0 mm 1 m/S 744 mmHg 53%
    16:00 +26°C° 0 mm 1 m/S 744 mmHg 55%
    17:00 +26°C° 0 mm 1 m/S 744 mmHg 56%
    18:00 +24°C° 0 mm 1 m/S 744 mmHg 64%
    19:00 +23°C° 0 mm 2 m/S 744 mmHg 71%
    20:00 +20°C° 0 mm 2 m/S 744 mmHg 78%
    21:00 +19°C° 0 mm 2 m/S 744 mmHg 82%
    22:00 +19°C° 0 mm 2 m/S 744 mmHg 85%
    23:00 +18°C° 0 mm 2 m/S 744 mmHg 89%

    25 Juli, Donnerstag

    Zeit Temperatur Niederschläge Wind Luftdruck Luftfeuchtigkeit
    00:00 +18°C° 0 mm 2 m/S 744 mmHg 89%
    01:00 +18°C° 0 mm 2 m/S 744 mmHg 89%
    02:00 +17°C° 0 mm 3 m/S 744 mmHg 89%
    03:00 +18°C° 0 mm 3 m/S 744 mmHg 88%
    04:00 +18°C° 0 mm 3 m/S 744 mmHg 87%
    05:00 +18°C° 0 mm 3 m/S 744 mmHg 86%
    06:00 +19°C° 0 mm 3 m/S 744 mmHg 83%
    07:00 +21°C° 0 mm 3 m/S 744 mmHg 80%
    08:00 +22°C° 0 mm 4 m/S 744 mmHg 77%
    09:00 +23°C° 0 mm 4 m/S 744 mmHg 73%
    10:00 +25°C° 0 mm 5 m/S 744 mmHg 69%
    11:00 +27°C° 0 mm 6 m/S 744 mmHg 65%
    12:00 +27°C° 0.3 mm 6 m/S 744 mmHg 65%
    13:00 +27°C° 0.3 mm 6 m/S 743 mmHg 65%
    14:00 +27°C° 0.3 mm 7 m/S 743 mmHg 65%
    15:00 +27°C° 0.6 mm 6 m/S 743 mmHg 69%
    16:00 +26°C° 0.6 mm 5 m/S 743 mmHg 73%
    17:00 +25°C° 0.6 mm 4 m/S 743 mmHg 78%
    18:00 +23°C° 0.1 mm 4 m/S 744 mmHg 80%
    19:00 +22°C° 0.1 mm 4 m/S 744 mmHg 83%
    20:00 +21°C° 0.1 mm 4 m/S 744 mmHg 86%
    21:00 +21°C° 0 mm 4 m/S 744 mmHg 86%
    22:00 +20°C° 0 mm 4 m/S 744 mmHg 87%
    23:00 +19°C° 0 mm 3 m/S 744 mmHg 88%
    Mehr zeigen